Regional Weather Roundup
Issued by NWS

Home | Current Version | Previous Version | Graphics & Text | Print | Product List | Glossary On
Versions: 1 2 3 4 5 6 7 8 9 10 11 12 13 14 15 16 17 18 19 20 21 22 23 24 25 26 27 28 29 30 31 32 33 34 35 36 37 38 39 40 41 42 43 44 45 46 47 48 49 50
000
ASUS43 KMKX 270521
RWRWI

WISCONSIN REGIONAL WEATHER ROUNDUP
NATIONAL WEATHER SERVICE MILWAUKEE/SULLIVAN WI
1200 AM CDT TUE JUN 27 2017

NOTE: "FAIR" INDICATES FEW OR NO CLOUDS BELOW 12,000 FEET WITH NO
SIGNIFICANT WEATHER AND/OR OBSTRUCTIONS TO VISIBILITY.

WIZ001-002-006>008-014>016-023>028-270600-
NORTHWEST WISCONSIN

CITY           SKY/WX    TMP DP  RH WIND       PRES   REMARKS
SUPERIOR ARPT  NOT AVBL
ASHLAND        CLOUDY    53  48  83 SW7       30.04S
HAYWARD        CLOUDY    54  51  90 S5        30.07F
SIREN          CLEAR     49  47  95 CALM      30.08S
CUMBERLAND     PTCLDY    48  46  93 SW3       30.09S
RICE LAKE      PTCLDY    51  50  96 CALM      30.10S
CHETEK         PTCLDY    49  49 100 CALM      30.10S
LADYSMITH      MOCLDY    54  49  84 W6        30.10R
EAU CLAIRE     CLEAR     53  48  83 SW6       30.09S
MENOMONIE      CLEAR     53  48  84 SW5       30.10S
NEW RICHMOND   CLEAR     52  50  92 CALM      30.11S
OSCEOLA        CLEAR     51  51 100 CALM      30.13S
$$

WIZ003>005-009-010-017-018-270600-
NORTH CENTRAL WISCONSIN

CITY           SKY/WX    TMP DP  RH WIND       PRES   REMARKS
MANITOWISH WTR PTCLDY    44  44 100 CALM      30.05S FOG
ARBOR VITAE    CLEAR     49  47  93 CALM      30.04S
WOODRUFF       CLEAR     49  47  93 CALM      30.04S
RHINELANDER    CLEAR     44  44 100 W7        30.06S FOG
EAGLE RIVER    CLEAR     45  45 100 CALM      30.04S
LAND O LAKES   CLEAR     43  42  99 CALM      30.05S
PHILLIPS       PTCLDY    48  48 100 CALM      30.06S
TOMAHAWK       NOT AVBL
MEDFORD        PTCLDY    50  46  87 W6        30.08S
MERRILL        CLEAR     45  45 100 CALM      30.08R
$$

WIZ029-030-035-036-043>047-270600-
CENTRAL WISCONSIN

CITY           SKY/WX    TMP DP  RH WIND       PRES   REMARKS
WAUSAU         CLEAR     51  48  89 CALM      30.06S
MOSINEE        CLEAR     50  46  87 W6        30.08S
MARSHFIELD     CLEAR     50  46  86 W6        30.08R
STEVENS POINT  CLEAR     51  47  84 CALM      30.08S
WAUPACA        PTCLDY    55  49  81 W5        30.08R
WAUTOMA        CLEAR     48  47  96 CALM      30.09R
WISC RAPIDS    CLEAR     49  47  93 W3        30.10R
CAMP DOUGLAS   CLEAR     45  44  96 W7        30.09S
$$

WIZ011>013-019>022-031-037>040-048>050-270600-
NORTHEAST WISCONSIN

CITY           SKY/WX    TMP DP  RH WIND       PRES   REMARKS
ANTIGO         CLEAR     48  46  95 W6        30.06S
SHAWANO        CLEAR     53  48  83 SW3       30.05R
OCONTO         PTCLDY    48  47  97 CALM      30.03S
STURGEON BAY     N/A     52  49  89 SW5         N/A
GREEN BAY      CLEAR     53  51  93 SW3       30.05R
MANITOWOC      CLEAR     52  49  89 W5        30.06R
APPLETON       CLEAR     54  45  71 SW9       30.05S
CLINTONVILLE   CLEAR     50  45  81 CALM      30.06S
OSHKOSH        CLEAR     54  46  74 W3        30.06R
$$

WIZ032>034-041-042-053>061-270600-
SOUTHWEST WISCONSIN

CITY           SKY/WX    TMP DP  RH WIND       PRES   REMARKS
LA CROSSE      CLEAR     59  51  75 SE3       30.11S
SPARTA         CLEAR     46  45  98 CALM      30.12S
VIROQUA        CLEAR     55  46  72 W3        30.12S
BOSCOBEL       CLEAR     50  47  89 CALM      30.12S
PRAIRIE DU CHI CLEAR     52  47  83 CALM      30.12S
PLATTEVILLE    CLEAR     55  46  71 W3        30.12S
$$

WIZ056-057-062-063-064-067-068-270600-
SOUTH CENTRAL WISCONSIN

CITY           SKY/WX    TMP DP  RH WIND       PRES   REMARKS
REEDSBURG      CLEAR     52  52 100 CALM      30.10S
BARABOO/DELLS  CLEAR     48  46  91 CALM      30.10S
LONE ROCK      CLEAR     51  48  89 CALM      30.11R
MINERAL POINT  CLEAR     55  48  76 CALM      30.12R
MADISON        CLEAR     53  47  79 CALM      30.09S
MIDDLETON      CLEAR     50  49  95 CALM      30.10S
WATERTOWN      NOT AVBL
MONROE         CLEAR     55  45  67 W7        30.11R
JANESVILLE     CLEAR     52  45  76 CALM      30.10S
$$

WIZ051-052-058>065-066-070>072-270600-
SOUTHEAST WISCONSIN

CITY           SKY/WX    TMP DP  RH WIND       PRES   REMARKS
MILWAUKEE      PTCLDY    59  49  69 W3        30.08S
WAUKESHA       CLEAR     52  46  82 CALM      30.10S
MILWAUKEE/TIMM CLEAR     52  45  76 CALM      30.09R
RACINE         CLEAR     54  46  74 W5        30.10R
KENOSHA        CLEAR     50  45  83 W3        30.09R
FOND DU LAC    CLEAR     52  46  80 SW6       30.08R
SHEBOYGAN      CLEAR     49  49 100 SW5       30.07R
WEST BEND      CLEAR     48  48 100 CALM      30.08R
JUNEAU         CLEAR     49  46  90 CALM      30.09S
$$

LSZ147-162-270600-
LAKE SUPERIOR

STATION/POSITION TIME  TEMP    WIND        PRES    WAVE
                       AIR SEA DIR/SP/G            HT/PER
                 (UTC) (F)     (DEG/KT/KT) (MB)    (FT/S)
W MID LAKE BUOY  0450   44 39  270/  6/  8 1016.1S   1/ 3
DEVILS ISLAND    0500   55     250/ 12/ 14 1016.8F
SAXON HARBOR     0440   55     170/  2/  6 1016.6S
$$

LMZ867-665-643>646-270600-
LAKE MICHIGAN

STATION/POSITION TIME  TEMP    WIND        PRES    WAVE
                       AIR SEA DIR/SP/G            HT/PER
                 (UTC) (F)     (DEG/KT/KT) (MB)    (FT/S)
CHAMBERS ISLAND  0440   57     220/  4/  8 1015.9S
S GREEN BAY BUOY 0500   60     240/ 14/ 16 1016.5
N MID LAKE BUOY  0450   57 55  250/  4/  4 1016.5S   1
NORTHPORT PIER   0440   55     260/  3/  5 1015.9S
KEWAUNEE LAKESHO 0454   52     300/  5/  6 1016.8R
SHEBOYGAN LAKESH 0500   54     250/  4/  4 1018.1R
PORT WASHINGTON  0430   56     290/  4/  6 1019.0S
ATWATER BUOY     0309   57 57  310/  8/  8 1018.3R
MILWAUKEE LAKESH 0500   58     300/  4/  4   N/A
S MID LAKE BUOY  0450   58 61  350/ 16/ 19 1018.1R   3/ 5
KENOSHA   LAKESH 0500   58     290/  6/  8 1018.6
$$

TC  - TEMPERATURE IN CELSIUS
VSB - VISIBILITY IN STATUTE MILES
WCI - WIND CHILL INDEX
HX  - HEAT INDEX





USA.gov is the U.S. government's official web portal to all federal, state and local government web resources and services.